Lincoln, CA

7:09 AM PDT on July 22, 2017 (GMT -0700)
Lincoln Regional-Harder

Weather History for KLHM - February, 2013

Change the Weather History Date:

Friday, February 15, 2013

  Actual Average (KAUN) Record (KAUN)
Temperature  
Mean Temperature 50 °F -  
Max Temperature 68 °F 57 °F 73 °F (1977)
Min Temperature 33 °F 39 °F 26 °F (1990)
Degree Days  
Heating Degree Days 14    
Moisture  
Dew Point 39 °F    
Average Humidity 74    
Maximum Humidity 100    
Minimum Humidity 32    
Precipitation  
Precipitation 0.00 in - - ()
Sea Level Pressure  
Sea Level Pressure 30.25 in    
Wind  
Wind Speed 3 mph (ENE)    
Max Wind Speed 8 mph    
Max Gust Speed -    
Visibility 10 miles    
Events      
Averages and records for this station are not official NWS values.
T = Trace of Precipitation, MM = Missing Value Source: NWS Daily Summary

Daily Weather History Graph

Daily Weather History Graph

Search for Another Location

Airport or City:

Trip Planner

Search our weather history database for the weather conditions in past years. The results will help you decide how hot, cold, wet, or windy it might be!

Date:

Astronomy

Feb. 15, 2013 Rise Set
Actual Time 6:56 AM PST 5:43 PM PST
Civil Twilight 6:28 AM PST 6:10 PM PST
Nautical Twilight 5:57 AM PST 6:41 PM PST
Astronomical Twilight 5:26 AM PST 7:12 PM PST
Moon 9:39 AM PST (2/15) 11:45 PM PST (2/15)
Length of Visible Light 11h 41m
Length of Day
10h 47m
Waxing Crescent, 31% of the Moon is Illuminated
Feb 15
Waxing Crescent
Feb 17
First Quarter
Feb 25
Full
Mar 4
Last Quarter
Mar 11
New

Hourly Weather History & Observations

Time (PST) Temp. Windchill Dew Point Humidity Pressure Visibility Wind Dir Wind Speed Gust Speed Precip Events Conditions
12:15 AM 37.4 °F 33.8 °F 35.6 °F 93% 30.23 in 10.0 mi ENE 4.6 mph - N/A   Clear
12:35 AM 39.2 °F 35.0 °F 37.4 °F 93% 30.23 in 10.0 mi ENE 5.8 mph - N/A   Clear
12:55 AM 37.4 °F 34.9 °F 35.6 °F 93% 30.23 in 10.0 mi ENE 3.5 mph - N/A   Clear
1:15 AM 37.4 °F 33.8 °F 35.6 °F 93% 30.23 in 7.0 mi NE 4.6 mph - N/A   Clear
1:35 AM 35.6 °F 30.7 °F 35.6 °F 100% 30.23 in 10.0 mi ENE 5.8 mph - N/A   Clear
1:55 AM 37.4 °F 33.8 °F 35.6 °F 93% 30.24 in 10.0 mi East 4.6 mph - N/A   Clear
2:15 AM 37.4 °F 32.1 °F 35.6 °F 93% 30.24 in 10.0 mi East 6.9 mph - N/A   Clear
2:35 AM 37.4 °F - 35.6 °F 93% 30.24 in 10.0 mi Calm Calm - N/A   Clear
2:55 AM 41.0 °F - 35.6 °F 81% 30.24 in 10.0 mi Calm Calm - N/A   Clear
3:15 AM 37.4 °F - 35.6 °F 93% 30.23 in 10.0 mi Calm Calm - N/A   Clear
3:35 AM 37.4 °F 32.1 °F 35.6 °F 93% 30.23 in 10.0 mi ENE 6.9 mph - N/A   Clear
3:55 AM 41.0 °F 39.0 °F 35.6 °F 81% 30.23 in 10.0 mi ENE 3.5 mph - N/A   Clear
4:15 AM 37.4 °F 33.8 °F 35.6 °F 93% 30.23 in 10.0 mi NE 4.6 mph - N/A   Clear
4:35 AM 37.4 °F - 35.6 °F 93% 30.24 in 10.0 mi Calm Calm - N/A   Clear
4:55 AM 41.0 °F - 35.6 °F 81% 30.24 in 10.0 mi Calm Calm - N/A   Clear
5:15 AM 37.4 °F - 35.6 °F 93% 30.25 in 10.0 mi Calm Calm - N/A   Clear
5:35 AM 37.4 °F - 35.6 °F 93% 30.25 in 10.0 mi Calm Calm - N/A   Clear
5:55 AM 35.6 °F - 35.6 °F 100% 30.25 in 10.0 mi Calm Calm - N/A   Clear
6:15 AM 33.8 °F - 33.8 °F 100% 30.25 in 10.0 mi Calm Calm - N/A   Clear
6:35 AM 33.8 °F 30.8 °F 33.8 °F 100% 30.26 in 10.0 mi NE 3.5 mph - N/A   Clear
6:55 AM 33.8 °F - 33.8 °F 100% 30.26 in 10.0 mi Calm Calm - N/A   Clear
7:15 AM 33.8 °F 29.6 °F 32.0 °F 93% 30.26 in 10.0 mi East 4.6 mph - N/A   Clear
7:35 AM 33.8 °F 29.6 °F 32.0 °F 93% 30.26 in 10.0 mi ENE 4.6 mph - N/A   Clear
7:55 AM 35.6 °F 32.8 °F 35.6 °F 100% 30.27 in 10.0 mi ENE 3.5 mph - N/A   Clear
8:15 AM 42.8 °F - 41.0 °F 93% 30.27 in 10.0 mi Calm Calm - N/A   Clear
8:35 AM 44.6 °F - 39.2 °F 81% 30.28 in 10.0 mi Calm Calm - N/A   Clear
8:55 AM 48.2 °F - 39.2 °F 71% 30.28 in 10.0 mi Calm Calm - N/A   Clear
9:15 AM 51.8 °F - 41.0 °F 67% 30.28 in 10.0 mi Calm Calm - N/A   Clear
9:35 AM 55.4 °F - 41.0 °F 58% 30.28 in 10.0 mi Calm Calm - N/A   Clear
9:55 AM 55.4 °F - 39.2 °F 54% 30.29 in 10.0 mi Calm Calm - N/A   Clear
10:15 AM 57.2 °F - 42.8 °F 59% 30.29 in 10.0 mi SW 3.5 mph - N/A   Clear
10:35 AM 57.2 °F - 42.8 °F 59% 30.29 in 10.0 mi WSW 4.6 mph - N/A   Clear
10:55 AM 59.0 °F - 42.8 °F 55% 30.29 in 10.0 mi Calm Calm - N/A   Clear
11:15 AM 60.8 °F - 42.8 °F 52% 30.29 in 10.0 mi Calm Calm - N/A   Clear
11:35 AM 60.8 °F - 42.8 °F 52% 30.29 in 10.0 mi Calm Calm - N/A   Clear
11:55 AM 62.6 °F - 42.8 °F 48% 30.29 in 10.0 mi Calm Calm - N/A   Clear
12:15 PM 62.6 °F - 42.8 °F 48% 30.28 in 10.0 mi Calm Calm - N/A   Clear
12:35 PM 64.4 °F - 42.8 °F 45% 30.27 in 10.0 mi SW 5.8 mph - N/A   Clear
12:55 PM 64.4 °F - 42.8 °F 45% 30.26 in 10.0 mi SSW 3.5 mph - N/A   Clear
1:15 PM 64.4 °F - 42.8 °F 45% 30.26 in 10.0 mi WSW 4.6 mph - N/A   Clear
1:35 PM 66.2 °F - 37.4 °F 35% 30.25 in 10.0 mi Calm Calm - N/A   Clear
1:55 PM 66.2 °F - 37.4 °F 35% 30.24 in 10.0 mi Calm Calm - N/A   Clear
2:15 PM 66.2 °F - 35.6 °F 32% 30.24 in 10.0 mi Calm Calm - N/A   Clear
2:35 PM 68.0 °F - 37.4 °F 33% 30.23 in 10.0 mi Calm Calm - N/A   Clear
2:55 PM 68.0 °F - 39.2 °F 35% 30.23 in 10.0 mi Calm Calm - N/A   Clear
3:15 PM 68.0 °F - 41.0 °F 37% 30.23 in 10.0 mi Calm Calm - N/A   Clear
3:35 PM 68.0 °F - 42.8 °F 40% 30.23 in 10.0 mi Calm Calm - N/A   Clear
3:55 PM 68.0 °F - 42.8 °F 40% 30.23 in 10.0 mi Calm Calm - N/A   Clear
4:15 PM 68.0 °F - 44.6 °F 43% 30.23 in 10.0 mi Calm Calm - N/A   Clear
4:35 PM 68.0 °F - 42.8 °F 40% 30.22 in 10.0 mi West 3.5 mph - N/A   Clear
4:55 PM 66.2 °F - 46.4 °F 49% 30.22 in 10.0 mi Calm Calm - N/A   Clear
5:15 PM 64.4 °F - 46.4 °F 52% 30.22 in 10.0 mi Calm Calm - N/A   Clear
5:35 PM 62.6 °F - 46.4 °F 55% 30.22 in 10.0 mi Calm Calm - N/A   Clear
5:55 PM 60.8 °F - 46.4 °F 59% 30.22 in 10.0 mi Calm Calm - N/A   Clear
6:15 PM 59.0 °F - 46.4 °F 63% 30.22 in 10.0 mi Calm Calm - N/A   Clear
6:35 PM 57.2 °F - 46.4 °F 67% 30.23 in 10.0 mi Calm Calm - N/A   Clear
6:55 PM 53.6 °F - 46.4 °F 77% 30.23 in 10.0 mi Calm Calm - N/A   Clear
7:15 PM 48.2 °F - 42.8 °F 82% 30.24 in 10.0 mi NE 5.8 mph - N/A   Clear
7:35 PM 44.6 °F 41.4 °F 42.8 °F 93% 30.24 in 10.0 mi ENE 5.8 mph - N/A   Clear
7:55 PM 44.6 °F 40.7 °F 42.8 °F 93% 30.24 in 10.0 mi East 6.9 mph - N/A   Clear
8:15 PM 44.6 °F 41.4 °F 41.0 °F 87% 30.24 in 10.0 mi East 5.8 mph - N/A   Clear
8:35 PM 42.8 °F 38.6 °F 41.0 °F 93% 30.24 in 10.0 mi East 6.9 mph - N/A   Clear
8:55 PM 42.8 °F 38.0 °F 41.0 °F 93% 30.24 in 10.0 mi East 8.1 mph - N/A   Clear
9:15 PM 41.0 °F 38.0 °F 39.2 °F 93% 30.24 in 10.0 mi East 4.6 mph - N/A   Clear
9:35 PM 42.8 °F 41.1 °F 41.0 °F 93% 30.25 in 10.0 mi East 3.5 mph - N/A   Clear
9:55 PM 41.0 °F 38.0 °F 37.4 °F 87% 30.25 in 10.0 mi ENE 4.6 mph - N/A   Clear
10:15 PM 41.0 °F 37.1 °F 37.4 °F 87% 30.25 in 10.0 mi ENE 5.8 mph - N/A   Clear
10:35 PM 41.0 °F 36.4 °F 37.4 °F 87% 30.24 in 10.0 mi ENE 6.9 mph - N/A   Clear
10:55 PM 41.0 °F 38.0 °F 37.4 °F 87% 30.24 in 10.0 mi ENE 4.6 mph - N/A   Clear
11:15 PM 44.6 °F - 37.4 °F 76% 30.25 in 10.0 mi Calm Calm - N/A   Clear
11:35 PM 37.4 °F 34.9 °F 35.6 °F 93% 30.25 in 10.0 mi ENE 3.5 mph - N/A   Clear
11:55 PM 41.0 °F 39.0 °F 37.4 °F 87% 30.25 in 10.0 mi NE 3.5 mph - N/A   Clear